Find Starlink 31613

NORAD ID: 59431 Int'l Des: 2024-065 Owner: SPXS Country: US Constellation: starlink operational
LEOCIRCULAR

当前视图

正在加载3D地球...

About Starlink 31613

Starlink 31613 (NORAD 59431) is a starlink constellation satellite (v2 mini) launched Apr 7, 2024 by SPXS of US. It operates in LEO, CIRCULAR orbit with a mass of 730.00 kg.

关于 Starlink 31613

正在加载描述...

即将过境

Passes for default location (London). Set your location on the main map for personalized predictions.

高度历史

Loading altitude history...

两行轨道根数

1 59431U 24065L 26171.40604992 .00002664 00000-0 89955-4 0 9998
2 59431 53.1595 164.0116 0001241 87.4783 272.6361 15.34399091124666
Epoch: Jun 20, 2026 • Age: 24 hours

当前状态

高度 464.7 km
速度 7.64 km/s
星下点 35.21°N, 108.64°W
发射日期 Apr 7, 2024
运行时间 2.2 years
类型 internet

技术详情

分类 Payload
质量 730.00 kg
干质量 700.00 kg
总质量 730.00 kg
长度 0.30 m
直径 4.10 m
跨度 29.00 m
形状 Box + pan
制造商 SPXS
平台类型 Starlink V2M
阶段状态 In Orbit
所有者/国家 SPXS/US

Most Searched